Flag for U.S.A. Weather past 2 weeks in Galveston, Texas, U.S.A.

Now
61 °F

Mostly cloudy.


Feels Like: 61 °F
Forecast: 54 / 65 °F
Wind: 6 mph from South

Location: Scholes Field

Current Time: Feb 1, 2015 at 5:53:04 AM

Latest Report: Feb 1, 2015 at 4:52 AM


Visibility: 8 mi

Pressure: 29.93 "Hg

Humidity: 100%

Dew point: 61 °F

Location of GalvestonLocation

Historic Weather in Galveston — Graph

°F

Galveston temperature yesterday

Maximum temperature yesterday: 62 °F (at 11:52 AM)
Minimum temperature yesterday: 54 °F (at 12:52 AM)
Average temperature yesterday: 59 °F

Past Weeks' High & Low Weather Summary

 TemperatureHumidityPressure
High75 °F (Jan 27, 1:52 PM)100% (Jan 19, 2:52 AM)30.41 "Hg (Jan 19, 2:52 AM)
Low41 °F (Jan 24, 4:52 AM)36% (Jan 27, 1:52 PM)29.88 "Hg (Jan 22, 12:52 PM)
Average56 °F83%30.14 "Hg
* Reported Jan 17 4:52 AM — Feb 1 4:52 AM, Galveston, Weather by CustomWeather, © 2014

Note: Actual official high and low records may vary slightly from our data, if they occured in-between our weather recording intervals... More about our weather records

Advertising

Galveston weather history for previous 24 hours

 ConditionsComfort  
Time TempWeatherWind HumidityBarometerVisibility
4:52 AM
Feb 1
61 °FMostly cloudy.6 mph100%29.93 "Hg8 mi
3:52 AM60 °FPassing clouds.5 mph100%29.94 "Hg8 mi
2:52 AM61 °FClear.8 mph100%29.94 "Hg9 mi
1:52 AM61 °FClear.9 mph100%29.96 "Hg9 mi
12:52 AM62 °FPassing clouds.17 mph100%29.94 "Hg9 mi
11:52 PM
Jan 31
61 °FClear.14 mph100%29.99 "Hg10 mi
11:00 PM62 °FPartly cloudy.17 mph96%30.01 "Hg10 mi
9:52 PM61 °FPartly cloudy.16 mph97%30.03 "Hg10 mi
8:52 PM61 °FPassing clouds.14 mph97%30.04 "Hg10 mi
7:52 PM60 °FOvercast.14 mph96%30.03 "Hg10 mi
6:52 PM60 °FPassing clouds.15 mph93%30.02 "Hg10 mi
5:52 PM59 °FPartly sunny.15 mph96%30.03 "Hg9 mi
4:59 PM60 °FFog.16 mph93%30.03 "Hg5 mi
3:52 PM60 °FFog.15 mph90%30.05 "Hg5 mi
2:52 PM61 °FFog.18 mph87%30.06 "Hg5 mi
1:52 PM62 °FOvercast.16 mph83%30.09 "Hg10 mi
12:52 PM62 °FOvercast.17 mph80%30.13 "Hg10 mi
11:52 AM62 °FOvercast.17 mph78%30.16 "Hg10 mi
10:52 AM61 °FSunny.15 mph78%30.18 "Hg10 mi
9:52 AM58 °FSunny.15 mph84%30.20 "Hg10 mi
8:52 AM58 °FScattered clouds.15 mph81%30.20 "Hg10 mi
7:52 AM57 °FScattered clouds.10 mph81%30.20 "Hg10 mi
6:52 AM57 °FOvercast.13 mph78%30.19 "Hg10 mi
5:52 AM57 °FOvercast.9 mph81%30.19 "Hg10 mi
Weather by CustomWeather, © 2014

See weather overviewHow to use our weather pages